[[{"header":{"parameterUnit":"m.s-1","parameterCategory":1,"la1":30.2992,"la2":30.254,"lo1":-89.0895,"lo2":-89.0443,"dy":0.0025,"dx":0.0025,"nx":19,"ny":19,"refTime":"2026-04-24T21:00:00:Z","depth":0,"parameterNumber":2,"parameterNumberName":"U-component_of_WINDS"},"data":[0,0,0,2.755,2.7556,2.7815,2.7816,2.8147,2.815,0,0,0,0,0,0,0,0,0,0,0,2.7474,2.7476,2.755,2.7557,2.7815,2.7816,2.8147,2.815,0,0,0,0,0,0,0,0,0,0,0,2.7473,2.7475,2.7478,2.7557,2.7815,2.7816,2.8146,2.7951,0,0,0,0,0,0,0,0,0,0,2.7699,2.7628,2.7475,2.7478,2.7559,2.7814,2.7816,2.7941,2.7963,2.803,0,2.809,0,2.8126,2.8173,2.8174,0,0,0,2.7556,2.761,2.768,2.7479,2.7561,2.7814,2.7698,2.7953,2.7978,2.8059,2.8095,2.8107,2.8131,2.8175,2.8176,2.8568,2.857,0,0,2.7542,2.752,2.7663,2.7696,2.7656,2.769,2.7706,2.7968,2.8005,2.8096,2.8115,2.8137,2.8177,2.8179,2.8566,2.8569,0,0,0,2.7501,2.751,2.7574,2.7683,2.7729,2.7697,2.7716,2.7994,2.8016,2.8118,2.814,2.8179,2.8183,2.8564,2.8567,2.8638,0,0,0,2.7493,2.7486,2.7567,2.7556,2.7724,2.7865,2.7736,2.7998,2.8029,2.8139,2.8179,2.8186,2.8562,2.8566,2.8632,2.8675,0,0,0,2.7457,2.7482,2.7519,2.7554,2.7665,2.7861,2.7899,2.8005,2.8042,2.8174,2.8187,2.8561,2.8565,2.8626,2.8666,2.8774,0,0,0,2.7412,2.7576,2.752,2.7712,2.7663,2.7903,2.7897,2.8076,2.8198,2.8181,2.8563,2.8567,2.8625,2.866,2.8768,2.8862,2.8899,0,0,2.7606,2.7598,2.7714,2.7671,2.7916,2.7865,2.8121,2.8251,2.8283,2.8472,2.8481,2.8634,2.8665,2.8773,2.911,2.9139,0,0,0,2.7768,2.785,2.792,2.8036,2.8141,2.8236,2.8331,2.8381,2.8542,2.8375,2.8702,2.8722,2.8786,2.8832,2.8857,2.8914,2.8587,2.8586,2.8586,2.801,2.8045,2.8239,2.8306,2.8419,2.8517,2.8612,2.8696,2.8695,2.8772,2.8829,2.9029,2.9082,2.9101,2.9161,2.888,2.888,2.888,2.8881,2.83,2.8423,2.8424,2.8612,2.8649,2.8807,2.891,2.8906,2.906,2.8988,2.9046,2.8967,2.9132,2.9186,2.8886,2.8885,2.8885,2.8884,2.8884,2.8463,2.8529,2.8588,2.8762,2.8893,2.8955,2.9105,2.9132,2.9158,2.9216,2.928,2.9279,2.9283,2.9244,2.9245,2.9246,2.9247,2.9247,2.9247,2.861,2.8674,2.8797,2.8927,2.9007,2.9117,2.9221,2.9301,2.9396,2.9405,2.9405,2.94,2.9141,2.9076,2.9258,2.9256,2.9255,2.9254,2.9253,2.8892,2.8834,2.9024,2.9105,2.9262,2.9392,2.9426,2.9588,2.9658,2.9732,2.9715,2.9519,2.9512,2.9492,2.9439,2.9705,2.9705,2.9705,2.9705,2.9032,2.9032,2.9235,2.9363,2.9492,2.9544,2.976,2.9845,2.9922,2.9968,2.9934,2.9866,2.9844,2.9851,2.9823,2.9775,3.0119,3.012,3.012,2.9209,2.9224,2.9402,2.9478,2.9604,2.9713,2.9919,3.0067,3.0143,3.0138,3.0006,2.9989,2.9879,2.984,2.9831,2.9788,2.9699,0,0]},{"header":{"parameterUnit":"m.s-1","parameterCategory":1,"la1":30.2992,"la2":30.254,"lo1":-89.0895,"lo2":-89.0443,"dy":0.0025,"dx":0.0025,"nx":19,"ny":19,"refTime":"2026-04-24T21:00:00:Z","depth":0,"parameterNumber":3,"parameterNumberName":"V-component_of_WINDS"},"data":[0,0,0,4.0447,4.0454,4.079,4.0791,4.1229,4.1233,0,0,0,0,0,0,0,0,0,0,0,4.0351,4.0354,4.0446,4.0454,4.079,4.0792,4.1228,4.1233,0,0,0,0,0,0,0,0,0,0,0,4.0349,4.0353,4.0357,4.0456,4.079,4.0792,4.1227,4.0971,0,0,0,0,0,0,0,0,0,0,4.0643,4.0559,4.0352,4.0357,4.0458,4.0789,4.0792,4.0959,4.0987,4.1079,0,4.1162,0,4.1204,4.1262,4.1264,0,0,0,4.0452,4.0535,4.0622,4.0358,4.0461,4.0789,4.0638,4.0974,4.1007,4.1117,4.1168,4.1184,4.1211,4.1265,4.1267,4.1808,4.1811,0,0,4.0433,4.0414,4.06,4.0643,4.0591,4.0627,4.0648,4.0994,4.1048,4.117,4.1194,4.1219,4.1268,4.1272,4.1806,4.1809,0,0,0,4.0382,4.0401,4.0479,4.0625,4.0685,4.0637,4.0661,4.1033,4.106,4.1199,4.1224,4.1271,4.1276,4.1803,4.1807,4.1921,0,0,0,4.037,4.0371,4.0471,4.0463,4.0679,4.0863,4.0693,4.1036,4.1076,4.1222,4.1271,4.128,4.18,4.1805,4.1912,4.1979,0,0,0,4.0328,4.0366,4.0416,4.0461,4.0605,4.0858,4.0905,4.1045,4.1091,4.1264,4.1282,4.1798,4.1804,4.1903,4.1966,4.2118,0,0,0,4.0277,4.0512,4.0417,4.0689,4.0602,4.0925,4.0903,4.1145,4.1306,4.1273,4.1801,4.1807,4.1901,4.1957,4.2109,4.2245,4.2299,0,0,4.0563,4.0545,4.0707,4.0632,4.0967,4.0875,4.1228,4.1394,4.1428,4.168,4.1693,4.1915,4.1965,4.2116,4.2602,4.2645,0,0,0,4.0791,4.0907,4.1,4.1153,4.1285,4.1405,4.1518,4.158,4.1795,4.1553,4.201,4.204,4.213,4.2196,4.2233,4.2312,4.1835,4.1835,4.1834,4.117,4.12,4.147,4.1541,4.1689,4.1804,4.1928,4.2031,4.2018,4.2125,4.2202,4.2493,4.2569,4.2597,4.2679,4.2273,4.2273,4.2274,4.2274,4.1594,4.1765,4.1741,4.1995,4.2026,4.2239,4.2359,4.2342,4.2547,4.2438,4.2518,4.24,4.2643,4.2716,4.2283,4.2281,4.228,4.2279,4.2279,4.1849,4.1936,4.2006,4.223,4.2399,4.2462,4.2659,4.2679,4.27,4.2779,4.2863,4.2861,4.2865,4.2817,4.2818,4.2819,4.282,4.282,4.2821,4.2087,4.2162,4.2326,4.2485,4.2586,4.2721,4.2838,4.2938,4.3054,4.3054,4.3054,4.3033,4.2659,4.2567,4.2837,4.2834,4.2832,4.2831,4.283,4.2512,4.2419,4.2672,4.2773,4.2962,4.313,4.3151,4.3353,4.3439,4.3536,4.3496,4.3215,4.32,4.3171,4.3095,4.3486,4.3486,4.3486,4.3486,4.273,4.2722,4.2986,4.3147,4.3306,4.3351,4.3637,4.373,4.3811,4.3866,4.3811,4.3711,4.368,4.3683,4.3644,4.3573,4.4077,4.4078,4.4078,4.2994,4.3003,4.3244,4.3321,4.347,4.3597,4.3868,4.4054,4.4126,4.4103,4.391,4.3885,4.3723,4.3668,4.3645,4.3583,4.3454,0,0]}]]